Location: Helion Bumpstead
(52.0500°N, 0.4000°E)
Time: 21:01:56
(UTC+00:00)

USA 234 - Pass Details

Date: 15 November 2025
Orbit: 1100 x 1107 km, 123.0° (Epoch: 02 December)

Event Time Altitude Azimuth Distance (km) Brightness Sun altitude
Rises 05:43:46 0° 152° (SSE) 3,917 6.8 -14.4°
Reaches altitude 10° 05:46:28 10° 161° (SSE) 2,961 5.9 -14.0°
Maximum altitude 05:52:25 36° 226° (SW) 1,666 4.0 -13.1°
Enters shadow 05:57:05 16° 285° (WNW) 2,542 4.5 -12.4°
